Mosinee, WI

10:55 PM CDT on August 19, 2017 (GMT -0500)
Central Wisconsin

Weather History for KCWA - February, 2013

Change the Weather History Date:

Wednesday, February 20, 2013

  Actual Average Record
Temperature  
Mean Temperature 11 °F -  
Max Temperature 21 °F 28 °F 50 °F (2017)
Min Temperature 1 °F 11 °F -13 °F (2015)
Degree Days  
Heating Degree Days 54    
Moisture  
Dew Point 3 °F    
Average Humidity 76    
Maximum Humidity 92    
Minimum Humidity 54    
Precipitation  
Precipitation 0.00 in - - ()
Sea Level Pressure  
Sea Level Pressure 30.26 in    
Wind  
Wind Speed 11 mph (NNW)    
Max Wind Speed 15 mph    
Max Gust Speed 20 mph    
Visibility 10 miles    
Events      
Averages and records for this station are not official NWS values.
T = Trace of Precipitation, MM = Missing Value Source: NWS Daily Summary

Daily Weather History Graph

Daily Weather History Graph

Search for Another Location

Airport or City:

Trip Planner

Search our weather history database for the weather conditions in past years. The results will help you decide how hot, cold, wet, or windy it might be!

Date:

Astronomy

Feb. 20, 2013 Rise Set
Actual Time 6:50 AM CST 5:34 PM CST
Civil Twilight 6:21 AM CST 6:04 PM CST
Nautical Twilight 5:47 AM CST 6:38 PM CST
Astronomical Twilight 5:13 AM CST 7:12 PM CST
Moon 12:48 PM CST 3:18 AM CST
Length of Visible Light 11h 42m
Length of Day
10h 43m
Waxing Gibbous, 76% of the Moon is Illuminated
Feb 20
Waxing Gibbous
Feb 25
Full
Mar 4
Last Quarter
Mar 11
New
Mar 19
First Quarter

Hourly Weather History & Observations

Time (CST) Temp. Windchill Dew Point Humidity Pressure Visibility Wind Dir Wind Speed Gust Speed Precip Events Conditions
12:15 AM 3.2 °F -12.2 °F -2.2 °F 78% 30.12 in 10.0 mi WNW 10.4 mph - N/A   Clear
12:35 AM 3.2 °F -13.1 °F -2.2 °F 78% 30.12 in 10.0 mi WNW 11.5 mph 17.3 mph N/A   Clear
12:55 AM 3.2 °F -13.1 °F -2.2 °F 78% 30.13 in 10.0 mi WNW 11.5 mph - N/A   Clear
1:15 AM 3.2 °F -12.2 °F -0.4 °F 85% 30.13 in 10.0 mi WNW 10.4 mph - N/A   Clear
1:35 AM 3.2 °F -12.2 °F -0.4 °F 85% 30.14 in 10.0 mi WNW 10.4 mph - N/A   Clear
2:15 AM 3.2 °F -11.3 °F -0.4 °F 85% 30.16 in 10.0 mi WNW 9.2 mph - N/A   Clear
2:35 AM 3.2 °F -13.1 °F -0.4 °F 85% 30.16 in 10.0 mi WNW 11.5 mph - N/A   Clear
2:55 AM 3.2 °F -13.1 °F -0.4 °F 85% 30.17 in 10.0 mi WNW 11.5 mph - N/A   Clear
3:15 AM 3.2 °F -14.6 °F -0.4 °F 85% 30.18 in 10.0 mi WNW 13.8 mph - N/A   Clear
3:35 AM 3.2 °F -14.6 °F -0.4 °F 85% 30.20 in 10.0 mi WNW 13.8 mph 19.6 mph N/A   Clear
3:55 AM 3.2 °F -13.1 °F -0.4 °F 85% 30.21 in 10.0 mi WNW 11.5 mph - N/A   Clear
4:15 AM 3.2 °F -13.1 °F -0.4 °F 85% 30.22 in 10.0 mi WNW 11.5 mph - N/A   Scattered Clouds
4:35 AM 3.2 °F -11.3 °F -0.4 °F 85% 30.22 in 10.0 mi WNW 9.2 mph - N/A   Scattered Clouds
5:45 AM 1.4 °F -12.5 °F -2.2 °F 85% 30.24 in 10.0 mi West 8.1 mph - N/A   Clear
7:45 AM 3.2 °F -11.3 °F 1.4 °F 92% 30.26 in 10.0 mi NW 9.2 mph - N/A   Clear
8:45 AM 8.6 °F -6.3 °F 3.2 °F 79% 30.26 in 10.0 mi NW 11.5 mph 17.3 mph N/A   Clear
9:50 AM 12.2 °F -2.5 °F 5.0 °F 73% 30.27 in 10.0 mi NNW 12.7 mph 17.3 mph N/A   Clear
11:50 AM 17.6 °F 6.4 °F 6.8 °F 63% 30.29 in 10.0 mi North 9.2 mph - N/A   Clear
2:45 PM 21.2 °F 12.6 °F 6.8 °F 54% 30.31 in 10.0 mi NW 6.9 mph - N/A   Clear
3:52 PM 21.2 °F 10.9 °F 6.8 °F 54% 30.33 in 10.0 mi NNW 9.2 mph - N/A   Clear
4:45 PM 21.2 °F 10.1 °F 6.8 °F 54% 30.33 in 10.0 mi NNW 10.4 mph - N/A   Clear
5:45 PM 19.4 °F 10.4 °F 6.8 °F 58% 30.33 in 10.0 mi North 6.9 mph - N/A   Clear
6:50 PM 17.6 °F 6.4 °F 5.0 °F 58% 30.34 in 10.0 mi North 9.2 mph - N/A   Clear
7:45 PM 15.8 °F 3.4 °F 6.8 °F 68% 30.34 in 10.0 mi North 10.4 mph - N/A   Clear
8:45 PM 14.0 °F -1.4 °F 6.8 °F 73% 30.33 in 10.0 mi North 15.0 mph - N/A   Clear
9:15 PM 14.0 °F -0.8 °F 6.8 °F 73% 30.33 in 10.0 mi North 13.8 mph - N/A   Clear
9:35 PM 14.0 °F 2.0 °F 6.8 °F 73% 30.34 in 10.0 mi North 9.2 mph - N/A   Clear
9:45 PM 12.2 °F -3.1 °F 6.8 °F 79% 30.34 in 10.0 mi North 13.8 mph 15.0 mph N/A   Clear
9:55 PM 12.2 °F -2.5 °F 6.8 °F 79% 30.34 in 10.0 mi North 12.7 mph 18.4 mph N/A   Clear
10:15 PM 12.2 °F -2.5 °F 5.0 °F 73% 30.34 in 10.0 mi North 12.7 mph 17.3 mph N/A   Clear
10:35 PM 10.4 °F -1.5 °F 5.0 °F 79% 30.34 in 10.0 mi North 8.1 mph - N/A   Clear
10:55 PM 10.4 °F -1.5 °F 3.2 °F 73% 30.35 in 10.0 mi NNE 8.1 mph - N/A   Clear
11:15 PM 10.4 °F -1.5 °F 3.2 °F 73% 30.35 in 10.0 mi NNE 8.1 mph - N/A   Clear
11:35 PM 8.6 °F -2.6 °F 3.2 °F 79% 30.35 in 10.0 mi NNE 6.9 mph - N/A   Clear
11:55 PM 8.6 °F - 3.2 °F 79% 30.35 in 10.0 mi Calm Calm - N/A   Clear